Time,TemperatureF,DewpointF,PressureIn,WindDirection,WindDirectionDegrees,WindSpeedMPH,WindSpeedGustMPH,Humidity,HourlyPrecipIn,Conditions,Clouds,dailyrainin,SoftwareType,DateUTC
2013-01-30 00:04:00,58.6,54.0,29.61,South,174,3.0,8.0,85,0.00,,,0.00,weatherlink.com 1.10,2013-01-30 05:04:00,
2013-01-30 00:19:00,58.6,54.0,29.60,SSE,155,3.0,7.0,85,0.00,,,0.00,weatherlink.com 1.10,2013-01-30 05:19:00,
2013-01-30 00:34:00,58.6,54.0,29.58,SSW,195,4.0,8.0,85,0.00,,,0.00,weatherlink.com 1.10,2013-01-30 05:34:00,
2013-01-30 00:49:00,58.8,54.0,29.57,SSE,166,3.0,8.0,85,0.00,,,0.00,weatherlink.com 1.10,2013-01-30 05:49:00,
2013-01-30 01:04:00,58.8,54.0,29.56,South,169,1.0,7.0,85,0.00,,,0.00,weatherlink.com 1.10,2013-01-30 06:04:00,
2013-01-30 01:19:00,59.1,55.0,29.55,NW,307,6.0,8.0,85,0.00,,,0.00,weatherlink.com 1.10,2013-01-30 06:19:00,
2013-01-30 01:34:00,59.6,56.0,29.54,South,169,2.0,8.0,86,0.00,,,0.00,weatherlink.com 1.10,2013-01-30 06:34:00,
2013-01-30 01:50:00,59.9,55.0,29.54,South,174,1.0,8.0,85,0.00,,,0.00,weatherlink.com 1.10,2013-01-30 06:50:00,
2013-01-30 02:04:00,59.9,55.0,29.54,South,179,4.0,11.0,85,0.00,,,0.00,weatherlink.com 1.10,2013-01-30 07:04:00,
2013-01-30 02:19:00,59.7,55.0,29.53,South,184,3.0,7.0,85,0.00,,,0.00,weatherlink.com 1.10,2013-01-30 07:19:00,
2013-01-30 02:34:00,59.6,55.0,29.51,SE,138,5.0,8.0,85,0.00,,,0.00,weatherlink.com 1.10,2013-01-30 07:34:00,
2013-01-30 02:49:00,59.5,55.0,29.50,SE,140,2.0,9.0,84,0.00,,,0.00,weatherlink.com 1.10,2013-01-30 07:49:00,
2013-01-30 03:04:00,59.5,55.0,29.49,South,190,2.0,10.0,84,0.00,,,0.00,weatherlink.com 1.10,2013-01-30 08:04:00,
2013-01-30 03:19:00,59.5,54.0,29.47,SSE,162,3.0,10.0,83,0.00,,,0.00,weatherlink.com 1.10,2013-01-30 08:19:00,
2013-01-30 03:34:00,59.5,54.0,29.46,South,177,3.0,9.0,82,0.00,,,0.00,weatherlink.com 1.10,2013-01-30 08:34:00,
2013-01-30 03:49:00,59.4,54.0,29.44,South,178,5.0,9.0,81,0.00,,,0.00,weatherlink.com 1.10,2013-01-30 08:49:00,
2013-01-30 04:04:00,59.3,54.0,29.43,SSE,162,4.0,8.0,81,0.00,,,0.00,weatherlink.com 1.10,2013-01-30 09:04:00,
2013-01-30 04:20:00,59.1,53.0,29.42,SSE,162,5.0,10.0,81,0.00,,,0.00,weatherlink.com 1.10,2013-01-30 09:20:00,
2013-01-30 04:35:00,59.4,53.0,29.41,SSE,156,3.0,9.0,80,0.00,,,0.00,weatherlink.com 1.10,2013-01-30 09:35:00,
2013-01-30 04:50:00,59.3,53.0,29.41,South,189,2.0,7.0,79,0.00,,,0.00,weatherlink.com 1.10,2013-01-30 09:50:00,
2013-01-30 05:05:00,59.3,53.0,29.41,SSE,164,2.0,8.0,79,0.00,,,0.00,weatherlink.com 1.10,2013-01-30 10:05:00,
2013-01-30 05:20:00,59.3,53.0,29.40,SE,136,2.0,10.0,79,0.00,,,0.00,weatherlink.com 1.10,2013-01-30 10:20:00,
2013-01-30 05:35:00,59.5,53.0,29.39,SSE,167,2.0,10.0,79,0.00,,,0.00,weatherlink.com 1.10,2013-01-30 10:35:00,
2013-01-30 05:50:00,59.5,53.0,29.38,South,182,2.0,8.0,80,0.00,,,0.00,weatherlink.com 1.10,2013-01-30 10:50:00,
2013-01-30 06:05:00,59.8,54.0,29.37,South,181,3.0,8.0,80,0.00,,,0.00,weatherlink.com 1.10,2013-01-30 11:05:00,
2013-01-30 06:20:00,60.2,54.0,29.36,South,172,2.0,8.0,79,0.00,,,0.00,weatherlink.com 1.10,2013-01-30 11:20:00,
2013-01-30 06:35:00,60.5,54.0,29.35,SSE,160,3.0,7.0,79,0.00,,,0.00,weatherlink.com 1.10,2013-01-30 11:35:00,
2013-01-30 06:50:00,60.5,54.0,29.33,SSE,161,4.0,8.0,79,0.00,,,0.00,weatherlink.com 1.10,2013-01-30 11:50:00,
2013-01-30 07:05:00,60.6,54.0,29.32,SSE,156,2.0,10.0,79,0.00,,,0.00,weatherlink.com 1.10,2013-01-30 12:05:00,
2013-01-30 07:20:00,60.9,54.0,29.31,SSE,163,5.0,8.0,79,0.00,,,0.00,weatherlink.com 1.10,2013-01-30 12:20:00,
2013-01-30 07:35:00,61.1,55.0,29.29,SE,139,3.0,7.0,80,0.00,,,0.00,weatherlink.com 1.10,2013-01-30 12:35:00,
2013-01-30 07:50:00,61.2,55.0,29.29,SSE,154,2.0,10.0,81,0.00,,,0.00,weatherlink.com 1.10,2013-01-30 12:50:00,
2013-01-30 08:20:00,58.4,56.0,29.40,SSW,210,1.0,14.0,92,0.00,,,0.00,weatherlink.com 1.10,2013-01-30 13:20:00,
2013-01-30 08:35:00,57.7,56.0,29.42,West,268,5.0,8.0,94,0.00,,,0.00,weatherlink.com 1.10,2013-01-30 13:35:00,
2013-01-30 08:51:00,57.0,55.0,29.41,SW,233,1.0,6.0,93,0.00,,,0.00,weatherlink.com 1.10,2013-01-30 13:51:00,
2013-01-30 09:05:00,56.3,54.0,29.41,West,272,0.0,5.0,92,0.00,,,0.00,weatherlink.com 1.10,2013-01-30 14:05:00,
2013-01-30 09:20:00,55.8,54.0,29.40,SSE,162,0.0,1.0,93,0.00,,,0.00,weatherlink.com 1.10,2013-01-30 14:20:00,
2013-01-30 09:35:00,55.3,54.0,29.41,SSE,162,1.0,2.0,94,0.00,,,0.00,weatherlink.com 1.10,2013-01-30 14:35:00,
2013-01-30 09:50:00,55.5,54.0,29.38,SSE,160,2.0,4.0,96,0.00,,,0.00,weatherlink.com 1.10,2013-01-30 14:50:00,
2013-01-30 10:06:00,55.6,55.0,29.39,SSE,164,1.0,7.0,96,0.00,,,0.00,weatherlink.com 1.10,2013-01-30 15:06:00,
2013-01-30 10:20:00,55.5,54.0,29.35,SSE,148,0.0,4.0,95,0.00,,,0.00,weatherlink.com 1.10,2013-01-30 15:20:00,
2013-01-30 10:35:00,55.5,54.0,29.36,South,176,1.0,4.0,95,0.00,,,0.00,weatherlink.com 1.10,2013-01-30 15:35:00,
2013-01-30 10:50:00,55.8,54.0,29.39,SW,230,3.0,7.0,93,0.00,,,0.00,weatherlink.com 1.10,2013-01-30 15:50:00,
2013-01-30 11:05:00,56.2,54.0,29.37,SE,143,3.0,9.0,92,0.00,,,0.00,weatherlink.com 1.10,2013-01-30 16:05:00,
2013-01-30 11:20:00,56.3,54.0,29.35,SW,221,3.0,9.0,92,0.00,,,0.00,weatherlink.com 1.10,2013-01-30 16:20:00,
2013-01-30 11:35:00,56.7,54.0,29.33,SSE,147,2.0,9.0,91,0.00,,,0.00,weatherlink.com 1.10,2013-01-30 16:35:00,
2013-01-30 11:50:00,56.7,54.0,29.30,South,175,2.0,8.0,91,0.00,,,0.00,weatherlink.com 1.10,2013-01-30 16:50:00,
2013-01-30 12:06:00,56.7,54.0,29.32,SW,217,5.0,10.0,90,0.00,,,0.00,weatherlink.com 1.10,2013-01-30 17:06:00,
2013-01-30 12:20:00,56.6,54.0,29.28,South,173,2.0,8.0,89,0.00,,,0.00,weatherlink.com 1.10,2013-01-30 17:20:00,
2013-01-30 12:36:00,56.9,54.0,29.28,South,176,6.0,7.0,89,0.00,,,0.00,weatherlink.com 1.10,2013-01-30 17:36:00,
2013-01-30 12:51:00,57.1,54.0,29.28,SSE,155,4.0,9.0,88,0.00,,,0.00,weatherlink.com 1.10,2013-01-30 17:51:00,
2013-01-30 13:05:00,57.3,54.0,29.25,SSE,168,4.0,9.0,87,0.00,,,0.00,weatherlink.com 1.10,2013-01-30 18:05:00,
2013-01-30 13:20:00,57.4,53.0,29.28,SSE,164,4.0,7.0,85,0.00,,,0.00,weatherlink.com 1.10,2013-01-30 18:20:00,
2013-01-30 13:36:00,57.5,53.0,29.30,SSW,205,3.0,10.0,85,0.00,,,0.00,weatherlink.com 1.10,2013-01-30 18:36:00,
2013-01-30 13:51:00,57.4,53.0,29.31,South,181,2.0,9.0,85,0.00,,,0.00,weatherlink.com 1.10,2013-01-30 18:51:00,
2013-01-30 14:06:00,57.5,53.0,29.30,SSE,160,4.0,11.0,85,0.00,,,0.00,weatherlink.com 1.10,2013-01-30 19:06:00,
2013-01-30 14:21:00,57.4,53.0,29.29,SSW,204,5.0,9.0,85,0.00,,,0.00,weatherlink.com 1.10,2013-01-30 19:21:00,
2013-01-30 14:36:00,57.3,53.0,29.30,SW,216,4.0,8.0,84,0.00,,,0.00,weatherlink.com 1.10,2013-01-30 19:36:00,
2013-01-30 14:51:00,57.3,53.0,29.30,South,187,4.0,11.0,84,0.00,,,0.00,weatherlink.com 1.10,2013-01-30 19:51:00,
2013-01-30 15:06:00,57.2,52.0,29.28,SSW,199,5.0,9.0,84,0.00,,,0.00,weatherlink.com 1.10,2013-01-30 20:06:00,
2013-01-30 15:21:00,57.0,52.0,29.28,SSE,162,2.0,9.0,84,0.00,,,0.00,weatherlink.com 1.10,2013-01-30 20:21:00,
2013-01-30 15:36:00,56.8,52.0,29.26,SSE,167,2.0,8.0,84,0.00,,,0.00,weatherlink.com 1.10,2013-01-30 20:36:00,
2013-01-30 15:51:00,56.7,52.0,29.28,South,185,5.0,9.0,84,0.00,,,0.00,weatherlink.com 1.10,2013-01-30 20:51:00,
2013-01-30 16:06:00,56.4,52.0,29.27,SSW,205,6.0,6.0,84,0.00,,,0.00,weatherlink.com 1.10,2013-01-30 21:06:00,
2013-01-30 16:21:00,56.3,52.0,29.25,South,176,2.0,6.0,85,0.00,,,0.00,weatherlink.com 1.10,2013-01-30 21:21:00,
2013-01-30 16:36:00,56.1,52.0,29.27,SW,222,1.0,8.0,85,0.00,,,0.00,weatherlink.com 1.10,2013-01-30 21:36:00,
2013-01-30 16:51:00,55.9,52.0,29.27,SSW,200,3.0,5.0,86,0.00,,,0.00,weatherlink.com 1.10,2013-01-30 21:51:00,
2013-01-30 17:06:00,55.7,52.0,29.25,SSW,193,5.0,6.0,87,0.00,,,0.00,weatherlink.com 1.10,2013-01-30 22:06:00,
2013-01-30 17:21:00,55.3,52.0,29.24,SSE,152,1.0,4.0,87,0.00,,,0.00,weatherlink.com 1.10,2013-01-30 22:21:00,
2013-01-30 17:36:00,55.1,52.0,29.24,SSW,208,2.0,7.0,89,0.00,,,0.00,weatherlink.com 1.10,2013-01-30 22:36:00,
2013-01-30 17:51:00,54.7,52.0,29.23,SSE,167,1.0,4.0,90,0.00,,,0.00,weatherlink.com 1.10,2013-01-30 22:51:00,
2013-01-30 18:06:00,54.3,52.0,29.23,ENE,77,0.0,2.0,90,0.00,,,0.00,weatherlink.com 1.10,2013-01-30 23:06:00,
2013-01-30 18:21:00,54.2,52.0,29.22,SE,133,1.0,3.0,91,0.00,,,0.00,weatherlink.com 1.10,2013-01-30 23:21:00,
2013-01-30 18:36:00,53.9,52.0,29.21,SW,224,3.0,7.0,92,0.00,,,0.00,weatherlink.com 1.10,2013-01-30 23:36:00,
2013-01-30 18:51:00,53.4,51.0,29.22,South,182,2.0,10.0,92,0.00,,,0.00,weatherlink.com 1.10,2013-01-30 23:51:00,
2013-01-30 19:06:00,53.2,51.0,29.20,SSW,192,3.0,7.0,93,0.00,,,0.00,weatherlink.com 1.10,2013-01-31 00:06:00,
2013-01-30 19:21:00,53.0,51.0,29.19,SSW,193,2.0,7.0,93,0.00,,,0.00,weatherlink.com 1.10,2013-01-31 00:21:00,
2013-01-30 19:36:00,52.9,51.0,29.19,South,191,4.0,14.0,94,0.00,,,0.00,weatherlink.com 1.10,2013-01-31 00:36:00,
2013-01-30 19:51:00,52.9,51.0,29.19,SSW,193,3.0,8.0,93,0.00,,,0.00,weatherlink.com 1.10,2013-01-31 00:51:00,
2013-01-30 20:06:00,52.8,51.0,29.19,SW,214,0.0,6.0,93,0.00,,,0.00,weatherlink.com 1.10,2013-01-31 01:06:00,
2013-01-30 20:21:00,52.5,51.0,29.16,South,179,3.0,7.0,93,0.00,,,0.00,weatherlink.com 1.10,2013-01-31 01:21:00,
2013-01-30 20:36:00,52.6,49.0,29.16,South,189,5.0,24.0,87,0.00,,,0.00,weatherlink.com 1.10,2013-01-31 01:36:00,
2013-01-30 20:51:00,52.4,48.0,29.15,South,176,3.0,10.0,86,0.00,,,0.00,weatherlink.com 1.10,2013-01-31 01:51:00,
2013-01-30 21:06:00,52.0,48.0,29.16,SSW,208,4.0,8.0,86,0.00,,,0.00,weatherlink.com 1.10,2013-01-31 02:06:00,
2013-01-30 21:21:00,51.8,48.0,29.16,SW,214,1.0,8.0,87,0.00,,,0.00,weatherlink.com 1.10,2013-01-31 02:21:00,
2013-01-30 21:37:00,48.2,42.0,29.20,NNW,339,11.0,29.0,78,0.00,,,0.00,weatherlink.com 1.10,2013-01-31 02:37:00,
2013-01-30 21:51:00,43.6,40.0,29.23,WNW,284,1.0,21.0,88,0.00,,,0.00,weatherlink.com 1.10,2013-01-31 02:51:00,
2013-01-30 22:07:00,42.1,39.0,29.24,NW,305,10.0,28.0,89,0.00,,,0.00,weatherlink.com 1.10,2013-01-31 03:07:00,
2013-01-30 22:21:00,41.0,38.0,29.23,North,359,10.0,21.0,88,0.00,,,0.00,weatherlink.com 1.10,2013-01-31 03:21:00,
2013-01-30 22:37:00,39.1,36.0,29.23,WSW,251,4.0,26.0,88,0.00,,,0.00,weatherlink.com 1.10,2013-01-31 03:37:00,
2013-01-30 22:52:00,38.5,36.0,29.25,SW,231,5.0,16.0,90,0.00,,,0.00,weatherlink.com 1.10,2013-01-31 03:52:00,
2013-01-30 23:07:00,38.3,35.0,29.24,WSW,238,8.0,11.0,89,0.00,,,0.00,weatherlink.com 1.10,2013-01-31 04:07:00,
2013-01-30 23:22:00,38.2,35.0,29.24,WNW,289,9.0,26.0,88,0.00,,,0.00,weatherlink.com 1.10,2013-01-31 04:22:00,
2013-01-30 23:37:00,37.9,35.0,29.25,SW,223,7.0,12.0,89,0.00,,,0.00,weatherlink.com 1.10,2013-01-31 04:37:00,
2013-01-30 23:52:00,37.4,35.0,29.27,South,173,5.0,13.0,90,0.00,,,0.00,weatherlink.com 1.10,2013-01-31 04:52:00,